Retour au catalogue

VERTECS

ActifScienceSSO
NORAD 69506·PAYLOAD·🇯🇵 Japan

Lancé Jun 12, 2026 depuis Tanegashima Space Center

Loading…

Prochains Passages (prochaines 24 heures)

TLE

FraisSource: Space-Track

Époque: Sep 14, 2026, 09:48 UTC

1 69506U 26132E   26257.40887347  .00002007  00000-0  16078-3 0  9997
2 69506  97.6590 320.0191 0013830  17.0088 343.1597 15.01214155 14157

Suivez VERTECS en temps réel avec AllMySat

Download on the App Store